843  
ASUS44 KHUN 262310  
RWRHUN  
 
WEATHER ROUNDUP FOR THE TENNESSEE VALLEY  
NATIONAL WEATHER SERVICE HUNTSVILLE AL  
600 PM CDT TUE MAY 26 2020  
 
ALZ001>004-270000-  
NORTHWEST ALABAMA  
 
CITY SKY/WX TMP DP RH WIND PRES REMARKS
 
SHOALS AIRPORT LGT RAIN 71 67 87 E5 29.95F  

 
 
ALZ005>007-016-270000-  
NORTH CENTRAL ALABAMA  
 
CITY SKY/WX TMP DP RH WIND PRES REMARKS
 
CULLMAN AG STN N/A 70 N/A N/A SE6 N/A  
DECATUR AP LGT RAIN 70 69 97 E5 29.96F  
HUNTSVILLE AP LGT RAIN 71 68 90 E8 29.96F  
HUN NWS/UAH N/A 70 68 91 E2 N/A  
MERIDIANVILLE PTSUNNY 71 67 87 SE5 29.98F  
VINEMONT AP DRIZZLE 69 67 93 E6 29.99F  

 
 
ALZ008>010-270000-  
NORTHEAST ALABAMA  
 
CITY SKY/WX TMP DP RH WIND PRES REMARKS
 
ALBERTVILLE CLOUDY 68 64 88 SE5 29.99S  
FORT PAYNE CLOUDY 74 64 71 SE5 29.99S  
SCOTTSBORO AP FAIR 77 68 73 VRB3G14 29.99S  

 
 
TNZ076-096-097-270000-  
SOUTHEASTERN MIDDLE TENNESSEE  
 
CITY SKY/WX TMP DP RH WIND PRES REMARKS
 
FAYETTEVILLE SUNNY 70 -38 1 CALM 29.98F  
TULLAHOMA SUNNY 75 63 64 SE7 29.98S  
WINCHESTER SUNNY 75 63 64 S8 29.98S  

 
   
..SURROUNDING SITES
 
 
 
CITY SKY/WX TMP DP RH WIND PRES REMARKS
 
ATLANTA CLOUDY 71 63 75 E10 30.02S  
ANNISTON LGT RAIN 70 68 93 E3 29.98F  
BIRMINGHAM LGT RAIN 70 67 90 E10 29.98R FOG  
CHATTANOOGA PTSUNNY 80 64 58 VRB7 29.99F  
CORINTH DRIZZLE 70 68 94 SE7 29.93S  
DALTON FAIR 79 61 53 SE8 30.01S  
GADSDEN LGT RAIN 71 70 96 E6 29.99S  
GOLDEN TRNGL CLOUDY 72 70 93 E10 29.90S  
HALEYVILLE LGT RAIN 67 66 97 SE9 29.98S  
JACKSON TN CLOUDY 70 67 90 SE6 29.94R  
MEMPHIS PTSUNNY 75 66 73 SE15G23 29.87F  
NASHVILLE LGT RAIN 73 66 78 E8G25 29.96S  
OXFORD MS CLOUDY 72 66 83 E9G15 29.90F  
ROME CLOUDY 77 63 61 SE6 29.99S  
SAVANNAH SUNNY 68 66 94 SE9G24 29.93F FOG  
TUPELO CLOUDY 72 67 84 E8 29.91F  
TUSCALOOSA CLOUDY 72 68 87 E9 29.91F  

 
 
 
 
CLICK HERE TO GO TO PREVIOUS BULLETINS.

The Nexlab AL Page
The Nexlab TN Page Main Text Page